Stations météo

réclame
Mon MeteoGroup
Capo Carbonara, Italie (16564): Température de l'air & dewpoint: 13.07.2018 21:00:00 - 19.07.2018 21:00:00 (CEST)Capo Carbonara, Italie (16564): Vitesse du vent: 13.07.2018 21:00:00 - 19.07.2018 21:00:00 (CEST)Capo Carbonara, Italie (16564): Direction du vent: 13.07.2018 21:00:00 - 19.07.2018 21:00:00 (CEST)Capo Carbonara, Italie (16564): reduced air pressure: 13.07.2018 21:00:00 - 19.07.2018 21:00:00 (CEST)Capo Carbonara, Italie (16564): visibility: 13.07.2018 21:00:00 - 19.07.2018 21:00:00 (CEST)
Date & Time tt [°C] td [°C] ff [km/h] ff [knt] dd ppp [hPa] vv [km]
19.07.2018 21:00:00 - - - - - - -
19.07.2018 20:00:00 29,0 27,3 16 9 WSW 1012,8 20
19.07.2018 19:00:00 30,0 28,0 22 12 SW - 10
19.07.2018 18:00:00 31,0 28,0 28 15 SW - 10
19.07.2018 17:00:00 31,4 27,5 22 12 SSW 1013,4 25
19.07.2018 16:00:00 32,0 27,0 15 8 NW - 10
19.07.2018 15:00:00 33,0 27,0 11 6 SE - 10
19.07.2018 14:00:00 31,8 27,9 13 7 E 1013,8 18
19.07.2018 13:00:00 31,0 28,0 18 10 E - 10
19.07.2018 12:00:00 30,0 28,0 15 8 ENE - 10
19.07.2018 11:00:00 28,4 26,4 15 8 ENE 1013,9 10
19.07.2018 10:00:00 28,0 26,0 18 10 ENE - 10
19.07.2018 09:00:00 26,0 25,0 18 10 ENE - 10
19.07.2018 08:00:00 24,8 23,8 13 7 ENE 1013,5 18
19.07.2018 07:00:00 24,0 24,0 16 9 NE - 10
19.07.2018 06:00:00 25,0 24,0 13 7 ENE - 10
19.07.2018 05:00:00 25,0 24,5 11 6 ENE 1013,3 18
19.07.2018 04:00:00 25,0 25,0 18 10 ENE - 10
19.07.2018 03:00:00 25,0 25,0 18 10 NE - 10
19.07.2018 02:00:00 25,0 24,5 15 8 NE 1014,2 18
19.07.2018 01:00:00 25,0 24,0 8 4 NE - 10
19.07.2018 00:00:00 25,0 24,0 5 3 NE - 10
18.07.2018 23:00:00 25,8 24,9 4 2 ENE 1014,6 18
18.07.2018 22:00:00 26,0 25,0 5 3 E - 10
18.07.2018 21:00:00 27,0 25,0 11 6 E - 10
18.07.2018 20:00:00 29,0 26,0 13 7 E 1014,3 10
18.07.2018 19:00:00 31,0 26,0 15 8 E - 10
18.07.2018 18:00:00 32,0 27,0 15 8 E - 10
18.07.2018 17:00:00 32,0 28,7 16 9 E 1014,7 10
18.07.2018 16:00:00 33,0 26,0 21 11 E - 10
18.07.2018 15:00:00 32,0 25,0 21 11 E - 10
18.07.2018 14:00:00 30,0 25,7 21 11 E 1015,2 18
18.07.2018 13:00:00 29,0 26,0 22 12 ENE - 10
18.07.2018 12:00:00 29,0 21,0 24 13 ENE - 10
18.07.2018 11:00:00 28,0 23,4 21 11 ENE 1015,2 18
18.07.2018 10:00:00 26,0 23,0 18 10 ENE - 10
18.07.2018 09:00:00 25,0 22,0 5 3 S - 10
18.07.2018 08:00:00 25,0 19,2 11 6 W 1013,9 18
18.07.2018 07:00:00 24,0 15,0 15 8 W - 10
18.07.2018 06:00:00 24,0 18,0 16 9 W - 10
18.07.2018 05:00:00 23,2 19,2 13 7 W 1014,1 15
18.07.2018 04:00:00 24,0 15,0 5 3 NW - 10
18.07.2018 03:00:00 23,0 21,0 21 11 W - 10
18.07.2018 02:00:00 24,0 21,3 15 8 W 1014,6 15
18.07.2018 01:00:00 24,0 21,0 18 10 W - 10
18.07.2018 00:00:00 25,0 19,0 9 5 NE - 10
17.07.2018 23:00:00 24,2 22,5 35 19 W 1014,1 15
17.07.2018 22:00:00 25,0 23,0 41 22 W - 10
17.07.2018 21:00:00 26,0 22,0 37 20 W - 10
17.07.2018 20:00:00 27,4 23,3 46 25 WSW 1012,5 15
17.07.2018 19:00:00 29,0 22,0 44 24 W - 10
17.07.2018 18:00:00 30,0 22,0 59 32 W - 10
17.07.2018 17:00:00 30,0 20,8 63 34 W 1012,4 15
17.07.2018 16:00:00 30,0 21,0 63 34 W - 10
17.07.2018 15:00:00 30,0 21,0 67 36 W - 10
17.07.2018 14:00:00 29,2 20,6 68 37 W 1012,4 20
17.07.2018 13:00:00 29,0 22,0 59 32 N - 10
17.07.2018 12:00:00 28,0 23,0 52 28 W - 10
17.07.2018 11:00:00 26,6 21,8 11 6 W 1012,8 15
17.07.2018 10:00:00 25,0 21,0 46 25 W - 10
17.07.2018 09:00:00 24,0 22,0 63 34 W - 10
17.07.2018 08:00:00 23,8 21,9 46 25 W 1012,2 16
17.07.2018 07:00:00 24,0 22,0 44 24 W - 10
17.07.2018 06:00:00 23,0 21,0 37 20 W - 10
17.07.2018 05:00:00 23,2 20,9 37 20 W 1012,3 16
17.07.2018 04:00:00 23,0 21,0 50 27 W - 10
17.07.2018 03:00:00 24,0 21,0 44 24 W - 10
17.07.2018 02:00:00 24,2 21,5 52 28 W 1012,2 10
17.07.2018 01:00:00 25,0 22,0 52 28 W - 10
17.07.2018 00:00:00 26,0 24,0 41 22 W - 10
16.07.2018 23:00:00 26,0 23,5 48 26 W 1012,0 10
16.07.2018 22:00:00 27,0 23,0 55 30 W - 10
16.07.2018 21:00:00 29,0 20,0 48 26 W - 10
16.07.2018 20:00:00 29,6 24,3 26 14 W 1011,7 10
16.07.2018 19:00:00 29,0 24,0 31 17 W - 10
16.07.2018 18:00:00 - - - - - - -
16.07.2018 17:00:00 28,6 25,8 18 10 ESE 1011,5 14
16.07.2018 16:00:00 28,0 25,0 35 19 E - 10
16.07.2018 15:00:00 33,0 28,0 15 8 ESE - 10
16.07.2018 14:00:00 32,6 27,6 13 7 ESE 1013,8 14
16.07.2018 13:00:00 30,0 26,0 15 8 S - 10
16.07.2018 12:00:00 30,0 23,0 13 7 SSW - 10
16.07.2018 11:00:00 29,8 20,4 9 5 SW 1013,7 10
16.07.2018 10:00:00 26,0 24,0 41 22 WSW - 10
16.07.2018 09:00:00 26,0 24,0 8 4 ESE - 10
16.07.2018 08:00:00 25,0 23,1 11 6 ENE 1012,8 8
16.07.2018 07:00:00 25,0 23,0 16 9 SSE - 6
16.07.2018 06:00:00 26,0 24,0 5 3 - - 6
16.07.2018 05:00:00 24,8 23,0 29 16 WSW 1014,2 3,0
16.07.2018 04:00:00 25,0 23,0 28 15 SSW - 3,0
16.07.2018 03:00:00 25,0 23,0 9 5 SE - 2,0
16.07.2018 02:00:00 25,2 23,6 15 8 E 1013,7 3,0
16.07.2018 01:00:00 25,0 23,0 22 12 ENE - 8
16.07.2018 00:00:00 25,0 24,0 15 8 ENE - 8
15.07.2018 23:00:00 25,8 24,0 9 5 E 1014,3 8
15.07.2018 22:00:00 - - - - - - -
15.07.2018 21:00:00 - - - - - - -
15.07.2018 20:00:00 28,0 24,0 5 3 ENE - 10
15.07.2018 19:00:00 29,0 24,0 11 6 SW - 10
15.07.2018 18:00:00 29,0 24,0 16 9 SSW - 10
15.07.2018 17:00:00 29,0 24,1 15 8 SSW 1014,0 12
15.07.2018 16:00:00 29,0 24,0 11 6 SSW - 10
15.07.2018 15:00:00 29,0 24,0 16 9 SSW - 10
15.07.2018 14:00:00 29,0 23,0 22 12 SSW 1014,8 14
15.07.2018 13:00:00 29,0 23,0 15 8 SSW - 10
15.07.2018 12:00:00 29,0 23,0 18 10 W - 10
15.07.2018 11:00:00 27,8 23,6 9 5 NE 1014,6 10
15.07.2018 10:00:00 26,0 20,0 11 6 E - 10
15.07.2018 09:00:00 28,0 22,0 8 4 ENE - 10
15.07.2018 08:00:00 26,2 21,6 29 16 WSW 1013,9 18
15.07.2018 07:00:00 27,0 22,0 26 14 WSW - 10
15.07.2018 06:00:00 27,0 22,0 22 12 W - 10
15.07.2018 05:00:00 26,6 22,0 35 19 W 1013,4 12
15.07.2018 04:00:00 27,0 22,0 37 20 W - 10
15.07.2018 03:00:00 27,0 22,0 35 19 W - 10
15.07.2018 02:00:00 27,4 22,4 31 17 W 1013,6 12
15.07.2018 01:00:00 27,0 22,0 37 20 W - 10
15.07.2018 00:00:00 28,0 23,0 26 14 W - 10
14.07.2018 23:00:00 28,2 22,4 37 20 W 1013,7 10
14.07.2018 22:00:00 27,0 23,0 15 8 WSW - 10
14.07.2018 21:00:00 28,0 23,0 8 4 WSW - 10
14.07.2018 20:00:00 30,0 25,0 18 10 SW 1013,3 10
14.07.2018 19:00:00 31,0 25,0 15 8 SSW - 10
14.07.2018 18:00:00 32,0 26,0 9 5 E - 10
14.07.2018 17:00:00 30,8 25,9 13 7 ENE 1014,3 20
14.07.2018 16:00:00 31,0 25,0 31 17 NE - 10
14.07.2018 15:00:00 31,0 24,0 29 16 ENE - 10
14.07.2018 14:00:00 30,8 23,7 34 18 NE 1014,7 20
14.07.2018 13:00:00 30,0 23,0 35 19 NE - 10
14.07.2018 12:00:00 30,0 22,0 37 20 ENE - 10
14.07.2018 11:00:00 29,0 21,8 42 23 NE 1014,8 20
14.07.2018 10:00:00 28,0 22,0 42 23 NE - 10
14.07.2018 09:00:00 28,0 21,0 46 25 NE - 10
14.07.2018 08:00:00 27,2 16,5 42 23 NE 1013,7 18
14.07.2018 07:00:00 27,0 19,0 52 28 WSW - 10
14.07.2018 06:00:00 27,0 18,0 34 18 NE - 10
14.07.2018 05:00:00 27,0 16,0 31 17 NE 1014,4 10
14.07.2018 04:00:00 27,0 17,0 24 13 ENE - 10
14.07.2018 03:00:00 27,0 16,0 31 17 NE - 10
14.07.2018 02:00:00 26,8 17,0 31 17 NE 1016,3 18
14.07.2018 01:00:00 27,0 19,0 34 18 NE - 10
14.07.2018 00:00:00 27,0 22,0 34 18 NE - 10
13.07.2018 23:00:00 26,6 22,0 34 18 N 1015,7 10
13.07.2018 22:00:00 27,0 22,0 34 18 NE - 10
13.07.2018 21:00:00 27,0 22,0 37 20 NE - 10

tt = Température de l'air
td = dewpoint
ff = Vitesse du vent
dd = Direction du vent
ppp = reduced air pressure
vv = visibility

stations d'obs. à proximité